When you browse on this site, cookies collect data to enhance your experience and personalize the content and advertising you see.
Visit our Privacy Policy to learn more. By continuing to use the site, you agree to this use of cookies and data.
  • In Romania
  • List of Countries
  • For 7 days
  • Water Temperature
  • Satellite Maps
  • Weather Map
  • Weather Widgets
  • user-avatar
    Login

    Hourly Weather Monastyrschino

    Today, 19 March, Tuesday

    Time Temperature Precipitation Wind Pressure Humidity
    00:00 -1°C° 0 mm 6 mps 751 mmHg 98%
    01:00 -2°C° 0 mm 6 mps 751 mmHg 97%
    02:00 -2°C° 0 mm 6 mps 750 mmHg 96%
    03:00 -2°C° 0 mm 6 mps 750 mmHg 95%
    04:00 -2°C° 0 mm 6 mps 750 mmHg 93%
    05:00 -2°C° 0 mm 6 mps 750 mmHg 92%
    06:00 -3°C° 0 mm 6 mps 749 mmHg 90%
    07:00 -2°C° 0 mm 6 mps 750 mmHg 90%
    08:00 -2°C° 0 mm 6 mps 750 mmHg 91%
    09:00 -1°C° 0 mm 6 mps 750 mmHg 91%
    10:00 -1°C° 0 mm 6 mps 750 mmHg 94%
    11:00 -1°C° 0 mm 6 mps 750 mmHg 97%
    12:00 0°C° 0 mm 5 mps 750 mmHg 99%
    13:00 0°C° 0 mm 5 mps 750 mmHg 99%
    14:00 0°C° 0 mm 5 mps 750 mmHg 99%
    15:00 0°C° 0 mm 5 mps 750 mmHg 99%
    16:00 0°C° 0 mm 5 mps 750 mmHg 99%
    17:00 0°C° 0 mm 5 mps 750 mmHg 99%
    18:00 0°C° 0 mm 4 mps 750 mmHg 98%
    19:00 0°C° 0 mm 4 mps 750 mmHg 98%
    20:00 0°C° 0 mm 4 mps 751 mmHg 97%
    21:00 0°C° 0 mm 4 mps 751 mmHg 97%
    22:00 0°C° 0.2 mm 4 mps 750 mmHg 97%
    23:00 0°C° 0.2 mm 4 mps 750 mmHg 98%

    Tomorrow, 20 March, Wednesday

    Time Temperature Precipitation Wind Pressure Humidity
    00:00 0°C° 0.2 mm 4 mps 750 mmHg 98%
    01:00 0°C° 0.5 mm 4 mps 750 mmHg 98%
    02:00 0°C° 0.5 mm 3 mps 750 mmHg 98%
    03:00 0°C° 0.5 mm 3 mps 750 mmHg 98%
    04:00 0°C° 0.1 mm 3 mps 750 mmHg 98%
    05:00 0°C° 0.1 mm 3 mps 750 mmHg 98%
    06:00 0°C° 0.1 mm 3 mps 750 mmHg 98%
    07:00 0°C° 0 mm 3 mps 750 mmHg 99%
    08:00 0°C° 0 mm 3 mps 750 mmHg 99%
    09:00 0°C° 0 mm 3 mps 750 mmHg 99%
    10:00 0°C° 0 mm 3 mps 750 mmHg 99%
    11:00 0°C° 0 mm 3 mps 750 mmHg 99%
    12:00 0°C° 0 mm 3 mps 750 mmHg 99%
    13:00 0°C° 0 mm 3 mps 750 mmHg 99%
    14:00 0°C° 0 mm 3 mps 750 mmHg 99%
    15:00 0°C° 0 mm 3 mps 750 mmHg 99%
    16:00 0°C° 0 mm 3 mps 750 mmHg 98%
    17:00 0°C° 0 mm 3 mps 750 mmHg 97%
    18:00 -1°C° 0 mm 3 mps 750 mmHg 95%
    19:00 -1°C° 0 mm 3 mps 750 mmHg 93%
    20:00 -1°C° 0 mm 3 mps 751 mmHg 91%
    21:00 -1°C° 0 mm 3 mps 751 mmHg 89%
    22:00 -2°C° 0 mm 3 mps 750 mmHg 89%
    23:00 -2°C° 0 mm 3 mps 750 mmHg 88%

    Day after tomorrow, 21 March, Thursday

    Time Temperature Precipitation Wind Pressure Humidity
    00:00 -2°C° 0 mm 3 mps 750 mmHg 88%
    01:00 -2°C° 0 mm 3 mps 750 mmHg 88%
    02:00 -2°C° 0 mm 3 mps 749 mmHg 89%
    03:00 -2°C° 0 mm 3 mps 749 mmHg 89%
    04:00 -2°C° 0 mm 3 mps 748 mmHg 88%
    05:00 -2°C° 0 mm 3 mps 748 mmHg 87%
    06:00 -4°C° 0 mm 3 mps 747 mmHg 86%
    07:00 -3°C° 0.1 mm 4 mps 747 mmHg 88%
    08:00 -3°C° 0.1 mm 4 mps 746 mmHg 89%
    09:00 -4°C° 0.1 mm 5 mps 746 mmHg 90%
    10:00 -2°C° 0.3 mm 5 mps 745 mmHg 91%
    11:00 -2°C° 0.3 mm 5 mps 745 mmHg 92%
    12:00 -1°C° 0.3 mm 4 mps 745 mmHg 93%
    13:00 -1°C° 0.3 mm 4 mps 744 mmHg 95%
    14:00 0°C° 0.3 mm 3 mps 744 mmHg 97%
    15:00 0°C° 0.3 mm 3 mps 744 mmHg 98%
    16:00 0°C° 0.2 mm 3 mps 744 mmHg 96%
    17:00 0°C° 0.2 mm 3 mps 744 mmHg 94%
    18:00 -1°C° 0.2 mm 4 mps 745 mmHg 92%
    19:00 -1°C° 0 mm 4 mps 745 mmHg 92%
    20:00 -1°C° 0 mm 4 mps 745 mmHg 92%
    21:00 -1°C° 0 mm 4 mps 746 mmHg 92%
    22:00 -2°C° 0 mm 4 mps 746 mmHg 93%
    23:00 -1°C° 0 mm 3 mps 746 mmHg 94%

    22 March, Friday

    Time Temperature Precipitation Wind Pressure Humidity
    00:00 -1°C° 0 mm 3 mps 746 mmHg 95%
    01:00 -1°C° 0 mm 3 mps 747 mmHg 95%
    02:00 -2°C° 0 mm 3 mps 747 mmHg 96%
    03:00 -2°C° 0 mm 3 mps 747 mmHg 96%
    04:00 -2°C° 0 mm 3 mps 747 mmHg 96%
    05:00 -2°C° 0 mm 2 mps 748 mmHg 96%
    06:00 -3°C° 0 mm 2 mps 748 mmHg 96%
    07:00 -2°C° 0 mm 2 mps 748 mmHg 95%
    08:00 -2°C° 0 mm 2 mps 749 mmHg 94%
    09:00 -1°C° 0 mm 2 mps 749 mmHg 94%
    10:00 -1°C° 0 mm 2 mps 749 mmHg 94%
    11:00 -1°C° 0 mm 2 mps 749 mmHg 94%
    12:00 +1°C° 0 mm 2 mps 749 mmHg 95%
    13:00 0°C° 0 mm 3 mps 748 mmHg 94%
    14:00 0°C° 0 mm 3 mps 748 mmHg 93%
    15:00 0°C° 0 mm 3 mps 748 mmHg 92%
    16:00 0°C° 0 mm 3 mps 747 mmHg 91%
    17:00 -1°C° 0 mm 4 mps 747 mmHg 90%
    18:00 -1°C° 0 mm 4 mps 747 mmHg 89%
    19:00 -1°C° 0 mm 4 mps 747 mmHg 89%
    20:00 -1°C° 0 mm 4 mps 746 mmHg 89%
    21:00 -1°C° 0 mm 5 mps 746 mmHg 89%
    22:00 -1°C° 0 mm 5 mps 745 mmHg 91%
    23:00 0°C° 0 mm 5 mps 744 mmHg 93%

    23 March, Saturday

    Time Temperature Precipitation Wind Pressure Humidity
    00:00 -1°C° 0 mm 6 mps 744 mmHg 95%
    01:00 -1°C° 0.4 mm 6 mps 743 mmHg 95%
    02:00 0°C° 0.4 mm 7 mps 742 mmHg 95%
    03:00 0°C° 0.4 mm 7 mps 741 mmHg 96%
    04:00 0°C° 0.7 mm 7 mps 740 mmHg 95%
    05:00 0°C° 0.7 mm 7 mps 739 mmHg 95%
    06:00 +1°C° 0.7 mm 8 mps 738 mmHg 95%
    07:00 +2°C° 0.2 mm 7 mps 738 mmHg 93%
    08:00 +2°C° 0.2 mm 7 mps 738 mmHg 91%
    09:00 +3°C° 0.2 mm 7 mps 738 mmHg 88%
    10:00 +1°C° 0 mm 8 mps 738 mmHg 81%
    11:00 +1°C° 0 mm 9 mps 738 mmHg 73%
    12:00 0°C° 0 mm 9 mps 738 mmHg 65%
    13:00 0°C° 0 mm 9 mps 738 mmHg 65%
    14:00 0°C° 0 mm 9 mps 739 mmHg 64%
    15:00 0°C° 0 mm 9 mps 739 mmHg 64%
    16:00 -1°C° 0 mm 9 mps 739 mmHg 65%
    17:00 -1°C° 0 mm 9 mps 739 mmHg 66%
    18:00 -1°C° 0 mm 8 mps 740 mmHg 67%
    19:00 -2°C° 0 mm 8 mps 740 mmHg 68%
    20:00 -2°C° 0 mm 8 mps 740 mmHg 69%
    21:00 -4°C° 0 mm 8 mps 741 mmHg 70%
    22:00 -4°C° 0 mm 8 mps 741 mmHg 69%
    23:00 -4°C° 0 mm 8 mps 741 mmHg 69%

    24 March, Sunday

    Time Temperature Precipitation Wind Pressure Humidity
    00:00 -3°C° 0 mm 7 mps 742 mmHg 69%
    01:00 -4°C° 0 mm 7 mps 742 mmHg 70%
    02:00 -4°C° 0 mm 7 mps 742 mmHg 70%
    03:00 -4°C° 0 mm 7 mps 743 mmHg 71%
    04:00 -4°C° 0 mm 7 mps 743 mmHg 72%
    05:00 -4°C° 0 mm 6 mps 743 mmHg 72%
    06:00 -5°C° 0 mm 6 mps 743 mmHg 73%
    07:00 -4°C° 0 mm 6 mps 743 mmHg 71%
    08:00 -4°C° 0 mm 6 mps 744 mmHg 68%
    09:00 -3°C° 0 mm 6 mps 744 mmHg 66%
    10:00 -1°C° 0 mm 5 mps 743 mmHg 61%
    11:00 0°C° 0 mm 5 mps 743 mmHg 56%
    12:00 +1°C° 0 mm 5 mps 743 mmHg 51%
    13:00 +1°C° 0 mm 5 mps 742 mmHg 50%
    14:00 +2°C° 0 mm 5 mps 742 mmHg 49%
    15:00 +2°C° 0 mm 5 mps 741 mmHg 48%
    16:00 +1°C° 0.2 mm 4 mps 740 mmHg 56%
    17:00 +1°C° 0.2 mm 4 mps 739 mmHg 65%
    18:00 0°C° 0.2 mm 4 mps 738 mmHg 74%
    19:00 0°C° 0.9 mm 5 mps 736 mmHg 77%
    20:00 -1°C° 0.9 mm 7 mps 735 mmHg 81%
    21:00 -2°C° 0.9 mm 8 mps 733 mmHg 85%
    22:00 -1°C° 0.7 mm 8 mps 732 mmHg 88%
    23:00 +1°C° 0.7 mm 8 mps 730 mmHg 91%
    Show more